Englewood, Florida, United States (34223)
Lat: 26.96N, Lon: 82.35W
Wx Zone: FLZ060
Local Info
Past Weather Observations for Friday, November 21, 2014

NOTE: This archive is for the closest National Weather Service station to Englewood. Information may differ from the station used for current weather conditions.

Click here for Long-term Archive

Time Weather Temperature Dewpoint Humidity Pressure Winds Precip Visibility
23:53
Overcast
64°F / 18°C 59°F / 15°C 83% 30.21 in
(1023 mb)
NE 6.9 mph
(NE 11 kph)
0.00 in
(0.00 mm)
10SM
22:53
Overcast
64°F / 18°C 59°F / 15°C 83% 30.24 in
(1024 mb)
NE 9.2 mph
(NE 15 kph)
- 10SM
21:53
Overcast
66°F / 19°C 59°F / 15°C 78% 30.24 in
(1024 mb)
NE 10.4 mph
(NE 17 kph)
- 10SM
20:53
Overcast
66°F / 19°C 59°F / 15°C 78% 30.24 in
(1024 mb)
NE 9.2 mph
(NE 15 kph)
- 10SM
19:53
Overcast
64°F / 18°C 59°F / 15°C 83% 30.24 in
(1024 mb)
ENE 11.5 mph
(ENE 19 kph)
0.00 in
(0.00 mm)
10SM
18:53
Overcast
Light Rain
64°F / 18°C 61°F / 16°C 88% 30.21 in
(1023 mb)
ENE 9.2 mph
(ENE 15 kph)
0.04 in
(1.02 mm)
10SM
17:53
Overcast
68°F / 20°C 59°F / 15°C 73% 30.21 in
(1023 mb)
ENE 9.2 mph
(ENE 15 kph)
0.00 in
(0.00 mm)
10SM
16:53
Overcast
Light Rain
68°F / 20°C 61°F / 16°C 78% 30.21 in
(1023 mb)
ENE 12.7 mph
(ENE 20 kph)
0.01 in
(0.25 mm)
10SM
15:53
Overcast
72°F / 22°C 61°F / 16°C 69% 30.18 in
(1022 mb)
ENE 13.8 mph
(ENE 22 kph)
0.00 in
(0.00 mm)
10SM
14:53
Overcast
73°F / 23°C 61°F / 16°C 65% 30.18 in
(1022 mb)
ENE 11.5 mph
(ENE 19 kph)
- 10SM
13:53
Overcast
72°F / 22°C 59°F / 15°C 65% 30.18 in
(1022 mb)
NE 15 mph
(NE 24 kph)
- 10SM
12:53
Overcast
72°F / 22°C 57°F / 14°C 61% 30.21 in
(1023 mb)
NE 15 mph
(NE 24 kph)
- 10SM
11:53
Overcast
72°F / 22°C 57°F / 14°C 61% 30.24 in
(1024 mb)
NE 13.8 mph
(NE 22 kph)
0.00 in
(0.00 mm)
10SM
10:53
Overcast
72°F / 22°C 57°F / 14°C 61% 30.24 in
(1024 mb)
ENE 18.4 mph
(ENE 30 kph)
- 10SM
09:53
Overcast
70°F / 21°C 57°F / 14°C 64% 30.24 in
(1024 mb)
NE 11.5 mph
(NE 19 kph)
- 10SM
08:53
Partly Cloudy
64°F / 18°C 54°F / 12°C 68% 30.24 in
(1024 mb)
NE 11.5 mph
(NE 19 kph)
- 10SM
07:53
Overcast
59°F / 15°C 52°F / 11°C 77% 30.21 in
(1023 mb)
NE 10.4 mph
(NE 17 kph)
- 10SM
06:53
Overcast
59°F / 15°C 52°F / 11°C 77% 30.21 in
(1023 mb)
NE 9.2 mph
(NE 15 kph)
- 10SM
05:53
Overcast
57°F / 14°C 52°F / 11°C 82% 30.18 in
(1022 mb)
NE 5.8 mph
(NE 9 kph)
- 10SM
04:53
Mostly Cloudy
57°F / 14°C 52°F / 11°C 82% 30.18 in
(1022 mb)
NE 6.9 mph
(NE 11 kph)
- 10SM
03:53
Overcast
57°F / 14°C 50°F / 10°C 77% 30.18 in
(1022 mb)
NE 10.4 mph
(NE 17 kph)
- 10SM
02:53
Overcast
57°F / 14°C 50°F / 10°C 77% 30.18 in
(1022 mb)
NE 10.4 mph
(NE 17 kph)
- 10SM
01:53
Overcast
57°F / 14°C 50°F / 10°C 77% 30.18 in
(1022 mb)
NE 8.1 mph
(NE 13 kph)
- 10SM
00:53
Partly Cloudy
55°F / 13°C 50°F / 10°C 82% 30.21 in
(1023 mb)
NE 8.1 mph
(NE 13 kph)
- 10SM
Time Weather Temperature Dewpoint Humidity Pressure Winds Precip Visibility


Weather for websites

WeatherForYou.com, LLC is not responsible for any damages or problems caused by this service. Current weather conditions are obtained from the closest station including government and personal stations which may have varying degrees of accuracy. Weather forecasts are derived from the NOAA NDFD. Like all things, this site belongs to Jesus Christ... He just trusts me to maintain it. If you have any questions or comments email webmaster@weatherforyou.com

Copyright © 2014, WeatherForYou.com LLC. All rights reserved.